Content
SEND FEEDBACK

Daily
Averages
Monthly
Summary
Mexico

ZITLALTEPEC, TLAXCALA


Home > North America > Mexico > Tlaxcala
Elevation: 8415 feet     Latitude: 19 11N     Longitude: 097 54W

WEATHER
 
SELECT A DAY
Number of Records: 125,673;   Date Range: 1/1/95 - 12/27/14
 
SHARE

PRINT THIS DATA

[ ← Previous Day ]
WEATHER ALMANAC - JANUARY 31, 2013
[ Next Day → ]
[ °C ]   °F
Weather ElementAverageHighLow
Temperature57.6 °F71.6 °F (2:41 pm)39.2 °F (6:49 am)
Dewpoint39.2 °F45 °F (8:50 am)33.8 °F (6:02 am)
Humidity51.8 %91 % (5:50 am)23 % (5:50 pm)
Barometer30.23 in30.39 in (9:45 am)29.82 in (5:50 pm)
Wind Speed5 mph13.8 mph (2:41 pm)
Weather ElementAverage
Visibility7.4 mi
Wind DirectionESE (124.8 °)

Weather ElementTotal
Precipitation---
Heating Degree Days9.6 (Base 65)
Growing Degree Days5.4 (Base 50)
Averaged from 25 records on January 31, 2013
WEATHER CONDITIONS BREAKOUT
WIND DIRECTION BREAKOUT
WEATHER BY HOUR - JANUARY 31, 2013
[ °C ]   °F
Local TimeTemperatureDewpointHumidityBarometerVisibilityWind DirectionWind SpeedGust SpeedPrecipitationEventsConditions
5:50 AM46.0 °F44.0 °F91 %29.96 in3.0 miNNE (20°)2.2 mph
6:02 AM41.0 °F33.8 °F76 %30.32 in8.0 miNW (310°)3.5 mphClear
6:49 AM39.2 °F33.8 °F81 %30.33 in8.0 miCalmClear
7:41 AM41.0 °F35.6 °F81 %30.35 in8.0 miCalmScattered Clouds
8:42 AM48.2 °F37.4 °F66 %30.38 in8.0 miNE (50°)4.6 mphMostly Cloudy
8:50 AM50.0 °F45.0 °F78 %30.08 in3.0 miNE (50°)2.2 mphHaze
9:45 AM62.6 °F39.2 °F42 %30.39 in8.0 miNE (50°)3.5 mphMostly Cloudy
10:51 AM59.0 °F39.2 °F48 %30.39 in8.0 miSSE (150°)5.8 mphMostly Cloudy
11:43 AM64.4 °F41.0 °F42 %30.38 in8.0 miSSW (200°)4.6 mphScattered Clouds
11:50 AM64.0 °F42.0 °F33 %30.06 in6.0 miESE (120°)4.5 mphHaze
12:49 PM66.2 °F39.2 °F37 %30.35 in8.0 miSSE (160°)9.2 mphScattered Clouds
1:44 PM69.8 °F39.2 °F33 %30.33 in8.0 miESE (120°)5.8 mphScattered Clouds
2:41 PM71.6 °F39.2 °F31 %30.29 in8.0 miSouth (170°)13.8 mphScattered Clouds
2:50 PM70.0 °F42.0 °F24 %29.94 in12.0 miESE (120°)2.2 mph
3:48 PM69.8 °F39.2 °F33 %30.28 in8.0 miSSW (200°)8.1 mphScattered Clouds
4:40 PM69.8 °F37.4 °F31 %30.28 in8.0 miSouth (190°)10.4 mphPartly Cloudy
5:48 PM66.2 °F37.4 °F35 %30.28 in8.0 miSouth (180°)9.2 mphPartly Cloudy
5:50 PM67.0 °F38.0 °F23 %29.82 in12.0 miESE (120°)2.2 mph
6:47 PM57.2 °F37.4 °F48 %30.30 in8.0 miSouth (180°)6.9 mphPartly Cloudy
7:47 PM55.4 °F39.2 °F54 %30.33 in8.0 miSouth (180°)6.9 mphClear
8:51 PM53.6 °F41.0 °F62 %30.37 in8.0 miSW (220°)4.6 mphClear
8:56 PM59.0 °F37.0 °F31 %29.83 in3.0 miENE (60°)2.2 mph
9:50 PM51.8 °F41.0 °F67 %30.38 in8.0 miSSW (210°)8.1 mphClear
11:43 PM46.4 °F39.2 °F76 %30.37 in8.0 miCalmClear
11:59 PM50.0 °F43.0 °F71 %29.95 in3.0 miENE (60°)4.5 mph
Hourly data recorded from MMPB, located miles away from Zitlaltepec, Tlaxcala







STORIES FROM OUR PARTNERS